TimeCDT,TemperatureF,Dew PointF,Humidity,Sea Level PressureIn,VisibilityMPH,Wind Direction,Wind SpeedMPH,Gust SpeedMPH,PrecipitationIn,Events,Conditions,WindDirDegrees,DateUTC
12:15 AM,64.4,60.8,88,30.08,-9999.0,North,3.5,-,N/A,,Unknown,10,2013-05-24 05:15:00
12:35 AM,66.2,60.8,83,30.08,-9999.0,Calm,Calm,-,N/A,,Clear,0,2013-05-24 05:35:00
12:55 AM,66.2,60.8,83,30.08,-9999.0,North,3.5,-,N/A,,Clear,10,2013-05-24 05:55:00
1:15 AM,66.2,60.8,83,30.09,-9999.0,North,3.5,-,N/A,,Clear,350,2013-05-24 06:15:00
1:35 AM,66.2,59.0,78,30.09,-9999.0,North,3.5,-,N/A,,Clear,350,2013-05-24 06:35:00
1:55 AM,64.4,59.0,83,30.10,-9999.0,North,3.5,-,N/A,,Clear,360,2013-05-24 06:55:00
2:15 AM,64.4,59.0,83,30.10,-9999.0,North,5.8,-,N/A,,Clear,10,2013-05-24 07:15:00
2:35 AM,64.4,57.2,77,30.10,-9999.0,North,5.8,-,N/A,,Clear,10,2013-05-24 07:35:00
2:55 AM,64.4,57.2,77,30.11,-9999.0,North,4.6,-,N/A,,Clear,10,2013-05-24 07:55:00
3:15 AM,64.4,57.2,77,30.11,-9999.0,North,4.6,-,N/A,,Clear,10,2013-05-24 08:15:00
3:35 AM,62.6,57.2,82,30.11,-9999.0,North,4.6,-,N/A,,Clear,350,2013-05-24 08:35:00
3:55 AM,62.6,57.2,82,30.12,-9999.0,North,3.5,-,N/A,,Clear,350,2013-05-24 08:55:00
4:15 AM,62.6,57.2,82,30.12,-9999.0,North,3.5,-,N/A,,Clear,360,2013-05-24 09:15:00
4:35 AM,62.6,55.4,77,30.12,-9999.0,North,4.6,-,N/A,,Clear,360,2013-05-24 09:35:00
4:55 AM,62.6,55.4,77,30.13,-9999.0,North,4.6,-,N/A,,Clear,350,2013-05-24 09:55:00
5:15 AM,60.8,55.4,82,30.14,-9999.0,Calm,Calm,-,N/A,,Clear,0,2013-05-24 10:15:00
5:35 AM,60.8,55.4,82,30.15,-9999.0,North,4.6,-,N/A,,Clear,10,2013-05-24 10:35:00
5:55 AM,60.8,55.4,82,30.16,-9999.0,North,3.5,-,N/A,,Clear,360,2013-05-24 10:55:00
6:15 AM,60.8,55.4,82,30.16,-9999.0,Calm,Calm,-,N/A,,Clear,0,2013-05-24 11:15:00
6:35 AM,60.8,57.2,88,30.17,-9999.0,NNE,5.8,-,N/A,,Unknown,20,2013-05-24 11:35:00
6:55 AM,62.6,57.2,82,30.17,-9999.0,NNE,4.6,-,N/A,,Clear,20,2013-05-24 11:55:00
7:15 AM,62.6,57.2,82,30.19,-9999.0,North,8.1,-,N/A,,Clear,10,2013-05-24 12:15:00
7:35 AM,64.4,57.2,77,30.19,-9999.0,NNE,5.8,-,N/A,,Clear,30,2013-05-24 12:35:00
7:55 AM,64.4,57.2,77,30.21,-9999.0,NNE,5.8,-,N/A,,Mostly Cloudy,20,2013-05-24 12:55:00
8:15 AM,64.4,57.2,77,30.22,-9999.0,North,8.1,-,N/A,,Overcast,360,2013-05-24 13:15:00
8:35 AM,66.2,57.2,73,30.23,-9999.0,NNE,4.6,-,N/A,,Mostly Cloudy,30,2013-05-24 13:35:00
8:55 AM,68.0,57.2,68,30.24,-9999.0,North,9.2,-,N/A,,Mostly Cloudy,350,2013-05-24 13:55:00
9:15 AM,66.2,57.2,73,30.24,-9999.0,NNE,9.2,17.3,N/A,,Mostly Cloudy,20,2013-05-24 14:15:00
9:35 AM,68.0,57.2,68,30.25,-9999.0,North,9.2,-,N/A,,Overcast,10,2013-05-24 14:35:00
9:55 AM,69.8,57.2,64,30.25,-9999.0,NNE,10.4,-,N/A,,Mostly Cloudy,30,2013-05-24 14:55:00
10:15 AM,69.8,57.2,64,30.25,-9999.0,North,9.2,-,N/A,,Mostly Cloudy,10,2013-05-24 15:15:00
10:35 AM,69.8,57.2,64,30.25,-9999.0,North,12.7,16.1,N/A,,Mostly Cloudy,10,2013-05-24 15:35:00
10:55 AM,71.6,57.2,60,30.25,-9999.0,NNE,9.2,16.1,N/A,,Scattered Clouds,30,2013-05-24 15:55:00
11:15 AM,71.6,57.2,60,30.25,-9999.0,North,6.9,-,N/A,,Scattered Clouds,10,2013-05-24 16:15:00
11:35 AM,71.6,57.2,60,30.25,-9999.0,NNE,8.1,-,N/A,,Partly Cloudy,20,2013-05-24 16:35:00
11:55 AM,73.4,55.4,53,30.26,-9999.0,NNE,6.9,-,N/A,,Clear,30,2013-05-24 16:55:00
12:15 PM,73.4,55.4,53,30.26,-9999.0,NNE,8.1,-,N/A,,Clear,30,2013-05-24 17:15:00
12:35 PM,73.4,55.4,53,30.25,-9999.0,NE,10.4,-,N/A,,Clear,50,2013-05-24 17:35:00
12:55 PM,75.2,55.4,50,30.25,-9999.0,North,6.9,-,N/A,,Clear,360,2013-05-24 17:55:00
1:15 PM,75.2,51.8,44,30.25,-9999.0,North,9.2,17.3,N/A,,Clear,10,2013-05-24 18:15:00
1:35 PM,77.0,53.6,44,30.25,-9999.0,North,9.2,-,N/A,,Clear,360,2013-05-24 18:35:00
1:55 PM,75.2,51.8,44,30.25,-9999.0,NNE,10.4,16.1,N/A,,Clear,20,2013-05-24 18:55:00
2:15 PM,78.8,51.8,39,30.25,-9999.0,NNE,9.2,-,N/A,,Clear,30,2013-05-24 19:15:00
2:35 PM,78.8,51.8,39,30.24,-9999.0,North,8.1,16.1,N/A,,Clear,10,2013-05-24 19:35:00
2:55 PM,78.8,50.0,36,30.24,-9999.0,NE,8.1,-,N/A,,Clear,50,2013-05-24 19:55:00
3:15 PM,78.8,51.8,39,30.24,-9999.0,North,11.5,-,N/A,,Clear,10,2013-05-24 20:15:00
3:35 PM,78.8,51.8,39,30.24,-9999.0,NNE,8.1,-,N/A,,Clear,20,2013-05-24 20:35:00
3:55 PM,80.6,51.8,37,30.23,-9999.0,NE,9.2,-,N/A,,Clear,50,2013-05-24 20:55:00
4:15 PM,80.6,50.0,34,30.24,-9999.0,NNE,6.9,-,N/A,,Clear,20,2013-05-24 21:15:00
4:35 PM,78.8,50.0,36,30.23,-9999.0,NE,9.2,16.1,N/A,,Clear,40,2013-05-24 21:35:00
4:55 PM,78.8,50.0,36,30.24,-9999.0,North,8.1,17.3,N/A,,Clear,10,2013-05-24 21:55:00
5:15 PM,78.8,48.2,34,30.23,-9999.0,NE,10.4,16.1,N/A,,Clear,40,2013-05-24 22:15:00
5:35 PM,77.0,46.4,34,30.23,-9999.0,NE,8.1,-,N/A,,Clear,40,2013-05-24 22:35:00
5:55 PM,77.0,46.4,34,30.23,-9999.0,NE,8.1,-,N/A,,Clear,40,2013-05-24 22:55:00
6:15 PM,75.2,48.2,38,30.22,-9999.0,NNE,9.2,-,N/A,,Clear,30,2013-05-24 23:15:00
6:35 PM,75.2,48.2,38,30.22,-9999.0,NE,8.1,-,N/A,,Clear,40,2013-05-24 23:35:00
6:55 PM,73.4,48.2,41,30.22,-9999.0,NE,3.5,-,N/A,,Clear,40,2013-05-24 23:55:00
7:15 PM,71.6,48.2,43,30.22,-9999.0,NE,4.6,-,N/A,,Clear,40,2013-05-25 00:15:00
7:35 PM,69.8,48.2,46,30.22,-9999.0,NE,4.6,-,N/A,,Clear,40,2013-05-25 00:35:00
7:55 PM,68.0,48.2,49,30.22,-9999.0,Calm,Calm,-,N/A,,Clear,0,2013-05-25 00:55:00
8:15 PM,64.4,53.6,68,30.22,-9999.0,Calm,Calm,-,N/A,,Clear,0,2013-05-25 01:15:00
8:35 PM,60.8,55.4,82,30.23,-9999.0,Calm,Calm,-,N/A,,Clear,0,2013-05-25 01:35:00
8:55 PM,57.2,51.8,82,30.24,-9999.0,Calm,Calm,-,N/A,,Clear,0,2013-05-25 01:55:00
9:15 PM,55.4,53.6,94,30.24,-9999.0,Calm,Calm,-,N/A,,Unknown,0,2013-05-25 02:15:00
9:35 PM,55.4,53.6,94,30.25,-9999.0,Calm,Calm,-,N/A,,Unknown,0,2013-05-25 02:35:00
9:55 PM,53.6,53.6,100,30.25,-9999.0,Calm,Calm,-,N/A,,Unknown,0,2013-05-25 02:55:00
10:15 PM,53.6,51.8,94,30.26,-9999.0,Calm,Calm,-,N/A,,Unknown,0,2013-05-25 03:15:00
10:35 PM,53.6,51.8,94,30.26,-9999.0,Calm,Calm,-,N/A,,Unknown,0,2013-05-25 03:35:00
10:55 PM,51.8,51.8,100,30.26,-9999.0,Calm,Calm,-,N/A,,Unknown,0,2013-05-25 03:55:00
11:15 PM,51.8,50.0,94,30.26,-9999.0,Calm,Calm,-,N/A,,Unknown,0,2013-05-25 04:15:00
11:35 PM,51.8,51.8,100,30.26,-9999.0,Calm,Calm,-,N/A,,Unknown,0,2013-05-25 04:35:00
11:55 PM,51.8,50.0,94,30.25,-9999.0,Calm,Calm,-,N/A,,Unknown,0,2013-05-25 04:55:00